CDT,Max TemperatureF,Mean TemperatureF,Min TemperatureF,Max Dew PointF,MeanDew PointF,Min DewpointF,Max Humidity, Mean Humidity, Min Humidity, Max Sea Level PressureIn, Mean Sea Level PressureIn, Min Sea Level PressureIn, Max VisibilityMiles, Mean VisibilityMiles, Min VisibilityMiles, Max Wind SpeedMPH, Mean Wind SpeedMPH, Max Gust SpeedMPH,PrecipitationIn, CloudCover, Events, WindDirDegrees
2013-10-1,80,66,53,55,52,50,91,60,34,29.96,29.90,29.79,10,8,0,14,6,,0.00,0,,90
2013-10-2,86,72,59,65,60,53,97,69,39,29.97,29.92,29.84,10,7,0,16,6,23,0.00,1,,147
2013-10-3,81,71,61,68,63,59,97,77,51,29.89,29.78,29.73,10,10,5,29,9,39,0.56,5,Rain-Thunderstorm,163
2013-10-4,83,68,53,72,62,39,94,80,52,29.93,29.76,29.65,10,10,1,20,10,29,0.46,6,Rain-Thunderstorm,119
2013-10-5,54,46,40,38,34,32,80,59,45,29.96,29.90,29.82,10,10,7,22,14,31,0.00,5,,246
2013-10-6,50,46,41,47,43,38,93,87,74,30.00,29.88,29.78,10,9,3,21,12,26,0.01,7,Rain,286
2013-10-7,75,58,41,43,38,32,89,55,21,30.10,30.04,30.01,10,10,10,16,8,23,0.01,0,,232
2013-10-8,78,63,48,46,42,39,79,51,26,30.02,29.97,29.91,10,10,10,24,13,32,0.00,0,,163
2013-10-9,78,66,53,50,48,46,80,59,34,30.03,29.99,29.94,10,10,5,18,12,23,0.00,0,,147
2013-10-10,80,68,55,54,52,48,75,53,36,30.00,29.90,29.82,10,10,10,20,13,29,0.00,0,,147
2013-10-11,80,67,52,58,49,34,77,57,19,29.91,29.75,29.65,10,10,10,24,15,33,0.00,2,Rain,176
2013-10-12,67,56,44,42,34,28,80,49,23,30.28,30.12,29.91,10,10,10,13,4,26,0.00,0,,294
2013-10-13,70,56,42,37,33,31,73,46,24,30.42,30.34,30.29,10,10,10,12,3,17,0.00,0,,114
2013-10-14,63,56,48,59,45,33,97,71,43,30.29,30.02,29.76,10,8,2,21,11,31,0.96,7,Rain-Thunderstorm,133
2013-10-15,54,50,45,51,41,36,85,72,59,30.06,29.95,29.81,10,10,10,26,15,32,0.01,7,,275
2013-10-16,56,48,41,41,36,26,85,64,34,30.08,30.03,29.97,10,10,7,15,8,20,0.00,4,,282
2013-10-17,63,50,37,41,36,32,87,64,34,30.05,29.94,29.89,10,10,10,20,7,28,0.00,2,,265
2013-10-18,50,42,34,38,32,26,93,71,40,30.14,30.07,30.01,10,10,10,12,5,,0.00,0,,274
2013-10-19,63,48,33,36,32,28,94,63,29,30.01,29.89,29.82,10,10,10,20,8,31,0.00,1,,229
2013-10-20,64,54,42,41,37,34,74,57,34,30.01,29.81,29.72,10,10,10,16,7,21,0.00,5,,275
2013-10-21,54,43,32,37,33,28,96,70,45,30.11,30.04,29.94,10,10,7,12,7,16,0.00,3,,262
2013-10-22,50,43,36,41,36,32,89,74,60,30.11,29.97,29.86,10,10,10,20,8,28,0.00,6,,314
2013-10-23,48,39,31,39,34,30,96,82,58,30.19,30.11,30.05,10,10,7,10,3,,0.00,6,,281
2013-10-24,50,40,30,34,26,21,91,61,34,30.40,30.34,30.19,10,10,10,14,7,20,0.00,1,,307
2013-10-25,59,44,29,31,27,23,77,54,32,30.41,30.27,30.07,10,10,10,22,10,26,0.00,1,,191
2013-10-26,53,44,37,36,31,27,83,61,39,30.21,30.14,30.02,10,10,10,13,7,20,0.00,0,,305
2013-10-27,69,50,32,35,30,26,80,53,25,30.15,29.97,29.84,10,10,10,20,8,26,0.00,0,,177
2013-10-28,55,46,38,40,35,32,84,65,47,30.18,30.10,29.95,10,10,10,21,9,26,0.00,1,Rain-Thunderstorm,61
2013-10-29,55,49,43,55,48,39,99,93,68,30.17,30.02,29.94,10,4,0,14,8,16,0.07,8,Fog-Rain,84
2013-10-30,59,51,43,58,52,43,100,99,98,29.97,29.85,29.76,10,3,0,16,5,22,0.66,8,Fog-Rain-Thunderstorm,306
2013-10-31,58,48,38,47,40,36,100,84,52,29.76,29.62,29.51,10,8,3,16,5,22,0.00,2,,271